TimeMDT,TemperatureF,Dew PointF,Humidity,Sea Level PressureIn,VisibilityMPH,Wind Direction,Wind SpeedMPH,Gust SpeedMPH,PrecipitationIn,Events,Conditions,WindDirDegrees,DateUTC
12:53 AM,64.9,48.9,56,29.91,10.0,SE,6.9,-,N/A,,Clear,130,2013-08-19 06:53:00
1:53 AM,62.1,48.0,60,29.91,10.0,Calm,Calm,-,N/A,,Clear,0,2013-08-19 07:53:00
2:53 AM,59.0,48.0,67,29.91,10.0,Calm,Calm,-,N/A,,Clear,0,2013-08-19 08:53:00
3:53 AM,55.9,46.9,72,29.93,10.0,WNW,4.6,-,N/A,,Clear,290,2013-08-19 09:53:00
4:53 AM,57.0,48.0,72,29.93,10.0,NW,3.5,-,N/A,,Clear,310,2013-08-19 10:53:00
5:53 AM,57.0,48.0,72,29.95,10.0,NW,4.6,-,N/A,,Clear,320,2013-08-19 11:53:00
6:53 AM,57.0,46.9,69,29.97,10.0,NNW,4.6,-,N/A,,Clear,330,2013-08-19 12:53:00
7:53 AM,62.1,48.0,60,29.98,10.0,Calm,Calm,-,N/A,,Clear,0,2013-08-19 13:53:00
8:53 AM,68.0,48.9,50,29.98,10.0,NW,5.8,-,N/A,,Clear,320,2013-08-19 14:53:00
9:53 AM,75.9,48.0,37,29.96,10.0,NW,6.9,-,N/A,,Clear,320,2013-08-19 15:53:00
10:53 AM,82.9,46.9,28,29.94,10.0,NW,5.8,-,N/A,,Clear,310,2013-08-19 16:53:00
11:53 AM,89.1,44.1,21,29.91,10.0,Variable,6.9,-,N/A,,Clear,0,2013-08-19 17:53:00
12:53 PM,91.9,43.0,18,29.89,10.0,Variable,4.6,-,N/A,,Clear,0,2013-08-19 18:53:00
1:53 PM,93.9,37.9,14,29.87,10.0,Variable,5.8,-,N/A,,Clear,0,2013-08-19 19:53:00
2:53 PM,93.0,35.1,13,29.87,10.0,Variable,5.8,-,N/A,,Clear,0,2013-08-19 20:53:00
3:53 PM,96.1,30.0,10,29.86,10.0,West,11.5,-,N/A,,Clear,260,2013-08-19 21:53:00
4:53 PM,96.1,32.0,10,29.83,9.0,Variable,4.6,-,N/A,,Clear,0,2013-08-19 22:53:00
5:53 PM,93.9,32.0,11,29.82,9.0,Calm,Calm,-,N/A,,Clear,0,2013-08-19 23:53:00
6:53 PM,93.0,26.1,9,29.81,10.0,WSW,4.6,-,N/A,,Clear,240,2013-08-20 00:53:00
7:53 PM,82.0,30.9,16,29.82,10.0,Calm,Calm,-,N/A,,Clear,0,2013-08-20 01:53:00
8:53 PM,77.0,39.0,25,29.83,10.0,SE,5.8,-,N/A,,Clear,140,2013-08-20 02:53:00
9:53 PM,73.0,43.0,34,29.83,10.0,ESE,9.2,-,N/A,,Clear,120,2013-08-20 03:53:00
10:53 PM,71.1,46.0,41,29.83,10.0,ESE,5.8,-,N/A,,Clear,110,2013-08-20 04:53:00
11:53 PM,70.0,46.9,44,29.81,10.0,East,8.1,-,N/A,,Clear,100,2013-08-20 05:53:00